{"data":{"norad_id":59881,"epoch":"2026-05-25T02:28:54.560928Z","epoch_age_seconds":76696,"freshness":"FRESH","line1":"1 59881U 24099A   26145.10340927  .00003116  00000+0  14396-3 0  9995","line2":"2 59881  97.4113   1.6800 0010467 290.0053  70.0055 15.20891526110626","mean_motion":15.20891526,"eccentricity":0.0010467,"inclination_deg":97.4113,"raan_deg":1.68,"arg_perigee_deg":290.0053,"mean_anomaly_deg":70.0055,"bstar":0.00014396,"rev_number":11062,"period_min":94.681308652383,"perigee_km":495.94751132997,"apogee_km":510.3527978594,"semimajor_km":6881.2871545947,"source":"CELESTRAK","updated_at":"2026-05-25T13:38:01.718940Z"}}